Regional Weather Roundup
Issued by NWS

Home | Current Version | Previous Version | Graphics & Text | Print | Product List | Glossary On
Versions: 1 2 3 4 5 6 7 8 9 10 11 12 13 14 15 16 17 18 19 20 21 22 23 24 25 26 27 28 29 30 31 32 33 34 35 36 37 38 39 40 41 42 43 44 45 46 47 48 49 50
275
ASUS45 KBOU 212307
RWRCO

WEATHER ROUNDUP FOR COLORADO
NATIONAL WEATHER SERVICE DENVER/BOULDER CO
400 PM MST SAT JAN 21 2017

NOTE: "FAIR" INDICATES FEW OR NO CLOUDS BELOW 12000 FEET WITH NO
SIGNIFICANT WEATHER AND/OR OBSTRUCTIONS TO VISIBILITY.

COZ001>005-013-030-031-220000-
...NORTHWEST COLORADO...

CITY           SKY/WX    TMP DP  RH WIND       PRES   REMARKS
CRAIG          SNOW      28  25  88 SW6       29.52R VSB 1/2 WCI  22
HAYDEN         FAIR      27  21  80 W7        29.50R WCI  19
MEEKER         LGT SNOW  31  29  92 SW6       29.51R FOG     WCI  25
MOUNT WERNER   NOT AVBL
STEAMBOAT SPGS CLOUDY    29  21  73 CALM      29.49R
WALDEN           N/A     18  10  73 W3        29.48R
$$

COZ006>008-011-220000-
...WEST CENTRAL VALLEYS...

CITY           SKY/WX    TMP DP  RH WIND       PRES   REMARKS
GRAND JUNCTION MIX PCPN  35  34  96 N13       29.55R WCI  26
MONTROSE       CLOUDY    33  31  92 SE6       29.55R WCI  28
EAGLE          CLOUDY    32  18  55 W5        29.49R WCI  27
RIFLE          LGT SNOW  34  31  88 W15       29.52R FOG     WCI  24
DELTA          CLOUDY    38  35  90 S9        29.54R
NUCLA          LGT SNOW  32  32 100 N6        29.59R VSB 3/4 WCI  26
$$

COZ017>023-064>068-220000-
...SOUTHWEST COLORADO...

CITY           SKY/WX    TMP DP  RH WIND       PRES   REMARKS
DURANGO        FAIR      30  24  78 W21G26    29.51R WCI  17
CORTEZ         LGT SNOW  33  30  88 W13       29.59R FOG     WCI  24
PAGOSA SPRINGS CLOUDY    29  27  91 SW10G21   29.49R WCI  20
TELLURIDE      NOT AVBL
WOLF CREEK PAS CLOUDY    12  12 100 SW13G20   29.50R WCI  -3
$$

COZ009-010-012-014-032>034-037-058>063-220000-
...CENTRAL COLORADO...

CITY           SKY/WX    TMP DP  RH WIND       PRES   REMARKS
ASPEN          LGT SNOW  27  23  85 N3        29.46R FOG
BUENA VISTA    FAIR      29  20  68 SW3       29.42R
COPPER MTN     NOT AVBL
BERTHOUD PASS  NOT AVBL
COTTONWOOD PAS CLOUDY    28  19  69 CALM      29.42R
GUNNISON       PTSUNNY   22  17  81 N8        29.49R WCI  12
KREMMLING      CLOUDY    23  16  74 CALM      29.51R
LEADVILLE      LGT SNOW  24  17  74 NW8       29.42R WCI  15
MONARCH PASS   CLOUDY    14  12  92 W5        29.52R WCI   6
SALIDA         CLOUDY    32  29  90 W3        29.50R VSB 3/4
SUNLIGHT       CLOUDY    18  18 100 MISG      29.51R
WILKERSON PASS FAIR      23  12  63 NW5       29.44R WCI  17
$$

COZ069>075-220000-
...SAN LUIS VALLEY/SANGRE DE CRISTO MOUNTAINS...

CITY           SKY/WX    TMP DP  RH WIND       PRES   REMARKS
ALAMOSA        PTSUNNY   30  21  69 NW6       29.42R WCI  24
LA VETA PASS   FLURRIES  23  18  80 NE20G32   29.38R WCI   8
SAGUACHE       LGT SNOW  28  27  93 NW5       29.45R WCI  23
$$

COZ035-036-038>040-220000-
...NORTHERN COLORADO FRONT RANGE...

CITY           SKY/WX    TMP DP  RH WIND       PRES   REMARKS
DENVER INTL AP MOCLDY    39  27  62 NE3       29.42R
DMNS CITY PARK   N/A     38  23  54 NE3G9     29.44R
AURORA         PTSUNNY   39  26  59 N6        29.43R
FRONT RANGE AP NOT AVBL
ERIE MUNI ARPT PTSUNNY   40  26  56 N5        29.44R
BOULDER MUN AP PTSUNNY   39  27  60 N5        29.42R
CENTENNIAL     PTSUNNY   38  23  55 NW7       29.42R
BROOMFIELD     PTSUNNY   39  25  56 N6        29.43R
FORT COLLINS   FAIR      39  27  60 NE7       29.44R
LONGMONT       PTSUNNY   42  27  55 NE5       29.45R
$$

COZ041-046-047-076>085-087-088-220000-
...PIKES PEAK/PALMER DIVIDE AND SOUTHERN FOOTHILLS...

CITY           SKY/WX    TMP DP  RH WIND       PRES   REMARKS
COLO. SPRINGS  PTSUNNY   39  21  48 E9        29.40R
A. F. ACADEMY  PTSUNNY   40  18  40 N8        29.39R
SCHRIEVER AFB  NOT AVBL
ELLICOTT       FAIR     N/A N/A N/A E6        29.39R
FALCON         FAIR      35  22  58 SE5       29.41R WCI  31
FORT CARSON    NOT AVBL
LIMON          FAIR      39  27  62 E10       29.41R
MONUMENT HILL  PTSUNNY   32  21  64 N8        29.42R WCI  25
TRINIDAD       CLOUDY    35  25  66 N5        29.38R WCI  31
$$

COZ042>045-048>051-090-091-220000-
...NORTHEAST COLORADO...

CITY           SKY/WX    TMP DP  RH WIND       PRES   REMARKS
GREELEY ARPT   FAIR      42  28  57 CALM      29.45R
AKRON          FAIR      39  24  55 E7        29.43R
BURLINGTON     FAIR      42  34  73 NE8       29.41R
WRAY           NOT AVBL
STERLING       NOT AVBL
HOLYOKE        FAIR      46  28  49 E3        29.46R
FORT MORGAN    FAIR      41  24  51 SE6       29.44R
$$

COZ086-089-092>099-220000-
...SOUTHEAST COLORADO...

CITY           SKY/WX    TMP DP  RH WIND       PRES   REMARKS
PUEBLO         FAIR      41  31  67 CALM      29.38R
LA JUNTA       CLOUDY    33  33 100 W10       29.38R WCI  25
LAMAR          FAIR      36  30  79 W7        29.36R
SPRINGFIELD      N/A     35  28  75 NW15      29.33R WCI  25
$$




USA.gov is the U.S. government's official web portal to all federal, state and local government web resources and services.